[[{"header":{"parameterUnit":"m.s-1","parameterCategory":1,"la1":30.2991,"la2":30.254,"lo1":-89.0895,"lo2":-89.0444,"dy":0.0017,"dx":0.0017,"nx":28,"ny":28,"refTime":"2024-08-16T21:00:00:Z","depth":0,"parameterNumber":2,"parameterNumberName":"U-component_of_WINDS"},"data":[0,0,0,0,0,0,0,0,0,0,0,0,0,0,0,0,0,0,0,0,0,0,0,0,0,0,0,0,0,0,0,0,0,0,0,0,0,0,0,0,0,0,0,0,0,0,0,0,0,0,0,0,0,0,0,0,0,0,3.9915,3.9915,0,3.9953,3.9953,3.9953,3.9843,3.984,3.9836,3.9833,3.9868,3.9872,3.9876,0,0,0,0,0,0,0,0,0,0,0,0,0,3.9743,3.9747,3.9915,3.9915,3.9916,3.9953,3.9953,3.9954,3.9844,3.984,3.9835,3.9832,3.9867,3.9872,3.9877,0,0,0,0,0,0,0,0,0,0,0,0,0,3.9803,3.9748,3.9915,3.9865,3.9861,3.9952,3.9953,3.9954,3.9845,3.9839,3.9834,3.983,3.9865,3.9871,3.9877,4.0017,0,0,3.9896,3.9899,0,0,0,0,0,0,0,0,3.98,3.9809,3.9872,3.9869,3.9865,3.9888,3.9905,3.9975,3.9846,3.9851,3.9833,3.9827,3.9879,3.9883,3.9902,4.0018,4.002,3.9897,3.99,3.9903,3.9905,0,0,0,0,0,0,0,3.9796,3.9807,3.9929,3.9873,3.9869,3.984,3.9843,3.9918,3.9893,3.985,3.9842,3.9848,3.9876,3.9896,3.9902,4.002,3.9896,3.9902,3.9906,3.9908,4.0253,4.0258,0,0,0,0,0,0,3.9799,3.9804,3.9928,3.9931,3.9819,3.9847,3.985,3.9886,3.9892,3.9888,3.9853,3.9843,3.9888,3.9895,3.9902,4.0066,3.9903,3.9909,3.9912,4.0247,4.0254,4.026,0,0,0,0,0,0,3.9795,3.9811,3.9927,3.9865,3.9878,3.9856,3.9896,3.9889,3.9909,3.9894,3.9888,3.9878,3.9884,3.9894,3.9989,4.0065,3.9911,3.9917,4.0241,4.0249,4.0257,4.0394,0,0,0,0,0,0,3.9791,3.981,3.9864,3.9868,3.9882,4.0015,3.9901,3.9893,3.992,3.9908,3.9916,3.9913,3.9881,3.9981,3.9995,4.0071,3.9922,4.0234,4.0245,4.0254,4.0383,4.0406,4.0426,0,0,0,0,0,3.9785,3.99,3.9867,3.9883,3.9949,4.0019,4.0027,3.999,3.9927,3.998,3.997,3.9912,4.0055,3.9991,4.0007,4.0086,4.0229,4.0242,4.0254,4.0373,4.0401,4.0425,0,0,0,0,0,0,3.9905,3.99,3.9863,3.9983,4.0003,4.0001,4.0067,4.0021,4.0058,4.0045,3.9995,3.9998,4.0102,4.0103,4.0033,4.0221,4.0131,4.0147,4.0216,4.0243,4.0264,4.0262,3.9927,0,0,0,0,0,3.9945,4.0005,3.9996,4.0103,4.0115,4.009,4.0119,4.0088,4.0106,4.0113,4.011,4.0128,4.0177,4.021,4.0254,4.0382,4.0382,4.0444,4.0465,4.0483,4.0498,4.0565,4.0592,4.03,4.03,4.03,0,0,4.0029,4.0034,4.0074,4.0127,4.0139,4.02,4.0097,4.0166,4.021,4.0123,4.0213,4.0212,4.0229,4.0342,4.0391,4.0345,4.0578,4.0499,4.0513,4.0518,4.0581,4.0608,4.0633,4.0309,4.0307,4.0306,0,0,4.0214,4.0224,4.0314,4.0328,4.0347,4.0329,4.0351,4.0356,4.0352,4.0442,4.0378,4.0429,4.0514,4.0529,4.0548,4.0738,4.0686,4.0753,4.0867,4.0933,4.0956,4.0976,4.1044,4.1069,4.0768,4.0768,4.0768,0,4.0316,4.0407,4.0365,4.0439,4.0464,4.0389,4.0479,4.0494,4.0526,4.0544,4.0493,4.0599,4.0605,4.072,4.0766,4.0784,4.0806,4.0752,4.0956,4.0976,4.0994,4.1058,4.1084,4.0776,4.0775,4.0775,4.0774,0,4.053,4.0594,4.0664,4.0699,4.0732,4.0813,4.0783,4.0821,4.0787,4.0775,4.0867,4.0872,4.0915,4.094,4.0908,4.1051,4.1022,4.0965,4.0873,4.1031,4.109,4.1114,4.0788,4.0785,4.0783,4.0781,0,0,4.0791,4.0803,4.0829,4.0844,4.0859,4.0907,4.0985,4.1029,4.1062,4.1086,4.115,4.1223,4.117,4.1192,4.116,4.1218,4.1369,4.1153,4.1153,4.1193,4.1526,4.1569,4.1598,4.1334,4.1339,4.1342,4.1524,0,4.0973,4.1108,4.1073,4.1207,4.1265,4.1194,4.1261,4.1278,4.1268,4.1315,4.1303,4.1356,4.1282,4.1295,4.1349,4.1339,4.1435,4.1325,4.1392,4.1395,4.139,4.1629,4.1675,4.1847,4.1547,4.1551,4.1554,0,4.1203,4.1238,4.1379,4.1385,4.1407,4.1469,4.1506,4.1552,4.1569,4.1557,4.1582,4.1538,4.1613,4.1522,4.1625,4.1551,4.1576,4.1575,4.1581,4.1585,4.1484,4.164,4.19,4.1926,4.159,4.1587,4.1585,0,4.138,4.1462,4.1556,4.1571,4.158,4.1625,4.1631,4.1642,4.1671,4.1703,4.1721,4.1761,4.1783,4.1814,4.1782,4.1719,4.189,4.1796,4.1882,4.1883,4.1921,4.1919,4.2189,4.1937,4.1937,4.1937,4.1936,0,4.1586,4.1675,4.1635,4.1693,4.179,4.1748,4.1844,4.1841,4.1853,4.1908,4.1848,4.1901,4.1856,4.1905,4.188,4.1968,4.1979,4.1971,4.1963,4.1976,4.1977,4.1992,4.1979,4.1943,4.1942,4.194,4.1939,0,4.18,4.1777,4.1875,4.1876,4.1879,4.195,4.195,4.2003,4.1989,4.206,4.2074,4.2051,4.2105,4.2077,4.2132,4.2115,4.223,4.2206,4.2225,4.2219,4.2306,4.2298,4.2595,4.2631,4.2357,4.236,4.2362,0,4.1933,4.2,4.2009,4.2042,4.2052,4.2107,4.2136,4.2097,4.2129,4.2153,4.2203,4.2253,4.229,4.2379,4.2367,4.2409,4.2386,4.2487,4.2391,4.2402,4.2387,4.2383,4.2389,4.2506,4.2509,4.2512,4.2514,0,4.2173,4.2158,4.2203,4.2245,4.2282,4.2312,4.2337,4.2368,4.2329,4.2368,4.2424,4.2453,4.251,4.2559,4.2595,4.2599,4.2551,4.2544,4.2566,4.258,4.2588,4.2585,4.2277,4.2537,4.2535,4.2533,4.2532,4.2531,4.235,4.2405,4.2421,4.2473,4.2488,4.2513,4.2563,4.2555,4.2601,4.2645,4.2619,4.2684,4.2698,4.2741,4.2752,4.2801,4.2761,4.2793,4.2801,4.2809,4.2821,4.2581,4.2808,4.2807,4.2806,4.2806,4.2805,0,4.2586,4.2592,4.264,4.2678,4.2719,4.2671,4.2696,4.2733,4.2791,4.2809,4.2847,4.291,4.2958,4.295,4.2992,4.3033,4.3012,4.3046,4.3042,4.3044,4.2855,4.2832,4.3062,4.3062,4.3062,4.3062,4.3062,4.3062,4.2713,4.2805,4.2793,4.2891,4.2896,4.296,4.2978,4.3001,4.3015,4.3088,4.3128,4.3123,4.313,4.3173,4.3214,4.321,4.3228,4.3271,4.3259,4.3083,4.3057,4.3033,4.3011,4.3275,4.3275,4.3443,4.3445,4.3446]},{"header":{"parameterUnit":"m.s-1","parameterCategory":1,"la1":30.2991,"la2":30.254,"lo1":-89.0895,"lo2":-89.0444,"dy":0.0017,"dx":0.0017,"nx":28,"ny":28,"refTime":"2024-08-16T21:00:00:Z","depth":0,"parameterNumber":3,"parameterNumberName":"V-component_of_WINDS"},"data":[0,0,0,0,0,0,0,0,0,0,0,0,0,0,0,0,0,0,0,0,0,0,0,0,0,0,0,0,0,0,0,0,0,0,0,0,0,0,0,0,0,0,0,0,0,0,0,0,0,0,0,0,0,0,0,0,0,0,-0.5757,-0.5757,0,-0.5756,-0.5756,-0.5756,-0.5757,-0.5757,-0.5757,-0.5757,-0.5755,-0.5755,-0.5755,0,0,0,0,0,0,0,0,0,0,0,0,0,-0.5759,-0.5758,-0.5757,-0.5757,-0.5757,-0.5756,-0.5756,-0.5756,-0.5757,-0.5757,-0.5757,-0.5757,-0.5755,-0.5755,-0.5755,0,0,0,0,0,0,0,0,0,0,0,0,0,-0.5758,-0.5758,-0.5757,-0.5757,-0.5757,-0.5756,-0.5756,-0.5756,-0.5757,-0.5757,-0.5757,-0.5757,-0.5755,-0.5755,-0.5755,-0.5754,0,0,-0.5755,-0.5755,0,0,0,0,0,0,0,0,-0.5758,-0.5758,-0.5757,-0.5757,-0.5757,-0.5757,-0.5757,-0.5756,-0.5757,-0.5757,-0.5757,-0.5757,-0.5756,-0.5756,-0.5755,-0.5754,-0.5754,-0.5755,-0.5755,-0.5755,-0.5755,0,0,0,0,0,0,0,-0.5758,-0.5758,-0.5757,-0.5757,-0.5757,-0.5757,-0.5757,-0.5756,-0.5756,-0.5757,-0.5757,-0.5757,-0.5756,-0.5756,-0.5755,-0.5754,-0.5755,-0.5755,-0.5755,-0.5755,-0.5755,-0.5755,0,0,0,0,0,0,-0.5758,-0.5758,-0.5757,-0.5757,-0.5758,-0.5757,-0.5757,-0.5757,-0.5756,-0.5756,-0.5757,-0.5757,-0.5756,-0.5756,-0.5755,-0.5755,-0.5755,-0.5755,-0.5755,-0.5755,-0.5755,-0.5755,0,0,0,0,0,0,-0.5758,-0.5758,-0.5757,-0.5757,-0.5757,-0.5757,-0.5757,-0.5757,-0.5756,-0.5756,-0.5756,-0.5757,-0.5756,-0.5755,-0.5755,-0.5755,-0.5755,-0.5755,-0.5755,-0.5755,-0.5755,-0.5754,0,0,0,0,0,0,-0.5758,-0.5758,-0.5757,-0.5757,-0.5757,-0.5756,-0.5757,-0.5757,-0.5757,-0.5757,-0.5756,-0.5756,-0.5756,-0.5755,-0.5755,-0.5755,-0.5755,-0.5754,-0.5755,-0.5755,-0.5754,-0.5754,-0.5755,0,0,0,0,0,-0.5758,-0.5756,-0.5757,-0.5757,-0.5756,-0.5756,-0.5756,-0.5756,-0.5756,-0.5756,-0.5756,-0.5756,-0.5756,-0.5755,-0.5755,-0.5755,-0.5754,-0.5755,-0.5755,-0.5754,-0.5754,-0.5755,0,0,0,0,0,0,-0.5754,-0.5756,-0.5757,-0.5755,-0.5756,-0.5756,-0.5755,-0.5756,-0.5756,-0.5756,-0.5756,-0.5756,-0.5756,-0.5755,-0.5755,-0.5755,-0.5755,-0.5755,-0.5755,-0.5755,-0.5755,-0.5755,-0.5755,0,0,0,0,0,-0.5754,-0.5754,-0.5755,-0.5753,-0.5754,-0.5754,-0.5754,-0.5755,-0.5755,-0.5755,-0.5755,-0.5755,-0.5756,-0.5756,-0.5756,-0.5755,-0.5756,-0.5755,-0.5755,-0.5756,-0.5755,-0.5757,-0.5757,-0.5755,-0.5755,-0.5755,0,0,-0.5751,-0.5752,-0.5752,-0.5753,-0.5753,-0.5753,-0.5754,-0.5754,-0.5754,-0.5755,-0.5755,-0.5755,-0.5756,-0.5756,-0.5756,-0.5756,-0.5756,-0.5756,-0.5756,-0.5755,-0.5757,-0.5757,-0.5757,-0.5755,-0.5755,-0.5755,0,0,-0.5748,-0.5748,-0.5747,-0.5749,-0.575,-0.5751,-0.5751,-0.5752,-0.5753,-0.5753,-0.5754,-0.5755,-0.5755,-0.5756,-0.5756,-0.5757,-0.5757,-0.5757,-0.5757,-0.5759,-0.5759,-0.5759,-0.576,-0.576,-0.5757,-0.5757,-0.5757,0,-0.5744,-0.5745,-0.5747,-0.5747,-0.5748,-0.575,-0.575,-0.5751,-0.5752,-0.5753,-0.5753,-0.5755,-0.5755,-0.5756,-0.5757,-0.5757,-0.5758,-0.5756,-0.5759,-0.5759,-0.5759,-0.576,-0.576,-0.5757,-0.5757,-0.5757,-0.5757,0,-0.5741,-0.5742,-0.5741,-0.5743,-0.5744,-0.5744,-0.5747,-0.5748,-0.5749,-0.5751,-0.5753,-0.5754,-0.5755,-0.5756,-0.5756,-0.5758,-0.5758,-0.5759,-0.5758,-0.5759,-0.576,-0.576,-0.5757,-0.5757,-0.5757,-0.5757,0,0,-0.5732,-0.5738,-0.5738,-0.574,-0.5743,-0.5743,-0.5745,-0.5747,-0.5748,-0.575,-0.5751,-0.5753,-0.5754,-0.5755,-0.5756,-0.5758,-0.576,-0.5759,-0.5759,-0.5759,-0.5763,-0.5762,-0.5762,-0.5761,-0.5761,-0.5761,-0.5763,0,-0.5729,-0.5731,-0.5734,-0.5735,-0.5736,-0.574,-0.5742,-0.5744,-0.5746,-0.5748,-0.5751,-0.5753,-0.5754,-0.5755,-0.5757,-0.5759,-0.5761,-0.5759,-0.5762,-0.5762,-0.5761,-0.5763,-0.5761,-0.5763,-0.5763,-0.5763,-0.5764,0,-0.5724,-0.5727,-0.5728,-0.5734,-0.5734,-0.5735,-0.5739,-0.574,-0.5744,-0.5746,-0.5749,-0.5751,-0.5754,-0.5755,-0.5759,-0.5758,-0.576,-0.5762,-0.5763,-0.5762,-0.5762,-0.5762,-0.5763,-0.5764,-0.5764,-0.5764,-0.5764,0,-0.5718,-0.5722,-0.5724,-0.5725,-0.5731,-0.5732,-0.5735,-0.5739,-0.5741,-0.5745,-0.5746,-0.575,-0.5752,-0.5755,-0.5759,-0.5759,-0.5764,-0.5765,-0.5766,-0.5766,-0.5765,-0.5765,-0.5767,-0.5768,-0.5768,-0.5768,-0.5768,0,-0.5713,-0.5714,-0.5721,-0.5722,-0.5724,-0.5729,-0.5731,-0.5734,-0.5738,-0.574,-0.5745,-0.5747,-0.5752,-0.5756,-0.5759,-0.5763,-0.5764,-0.5766,-0.5767,-0.5765,-0.5765,-0.5765,-0.5765,-0.5768,-0.5768,-0.5768,-0.5768,0,-0.5706,-0.5711,-0.5713,-0.572,-0.5721,-0.5722,-0.5728,-0.573,-0.5734,-0.5737,-0.5738,-0.5744,-0.5749,-0.5754,-0.576,-0.5762,-0.5766,-0.5768,-0.5765,-0.5765,-0.5766,-0.5766,-0.5767,-0.5768,-0.5769,-0.5769,-0.5769,0,-0.5702,-0.5703,-0.571,-0.5712,-0.5715,-0.5718,-0.5721,-0.5727,-0.5729,-0.5736,-0.5737,-0.5743,-0.5747,-0.5754,-0.5759,-0.5765,-0.5766,-0.5767,-0.5767,-0.5766,-0.5766,-0.5766,-0.5767,-0.5766,-0.5766,-0.5766,-0.5766,0,-0.5694,-0.5698,-0.5701,-0.5706,-0.571,-0.5714,-0.5718,-0.572,-0.5727,-0.573,-0.5736,-0.5739,-0.5747,-0.5752,-0.5759,-0.5762,-0.5765,-0.5766,-0.5767,-0.5764,-0.5763,-0.5764,-0.5764,-0.5765,-0.5765,-0.5765,-0.5765,-0.5765,-0.5689,-0.569,-0.5696,-0.5701,-0.5705,-0.571,-0.5713,-0.5718,-0.5722,-0.5729,-0.5733,-0.5738,-0.5745,-0.5754,-0.5758,-0.5763,-0.5764,-0.5765,-0.5765,-0.5765,-0.5765,-0.5763,-0.5765,-0.5765,-0.5765,-0.5765,-0.5765,0,-0.5682,-0.5687,-0.5691,-0.5698,-0.5702,-0.5706,-0.5712,-0.5715,-0.572,-0.5726,-0.5731,-0.5738,-0.5744,-0.5751,-0.5758,-0.5761,-0.5763,-0.5763,-0.5762,-0.5763,-0.5763,-0.5762,-0.5761,-0.5761,-0.5761,-0.5761,-0.5761,-0.5761,-0.5679,-0.5682,-0.5686,-0.5693,-0.5698,-0.5703,-0.5707,-0.5712,-0.5717,-0.5725,-0.573,-0.5735,-0.5742,-0.5751,-0.5757,-0.5759,-0.5762,-0.5761,-0.5764,-0.5763,-0.5763,-0.5763,-0.5762,-0.5762,-0.5762,-0.5763,-0.5763,-0.5763]}]]